This is the latest recevied weather packets stored in our database for station/object WW5JC. If no packets are shown the sender has not sent any weather packets the latest 10 day(s).
| Time | Temp. | Humidity | Pressure | Rain* | Wind** | Luminosity | Snow |
|---|---|---|---|---|---|---|---|
| 1788536960 | 32.22° C | 62% | 1017.7 hPa | 0 mm | - | 477 W/m² | - |
| 1788536655 | 31.67° C | 66% | 1017.5 hPa | 0 mm | - | 458 W/m² | - |
| 1788536350 | 31.67° C | 65% | 1017.6 hPa | 0 mm | - | 451 W/m² | - |
| 1788536046 | 31.11° C | 68% | 1017.5 hPa | 0 mm | - | 436 W/m² | - |
| 1788535742 | 30.56° C | 70% | 1017.6 hPa | 0 mm | - | 424 W/m² | - |
| 1788535441 | 31.67° C | 69% | 1017.4 hPa | 0 mm | - | 411 W/m² | - |
| 1788535136 | 31.11° C | 69% | 1017.5 hPa | 0 mm | - | 395 W/m² | - |
| 1788534836 | 31.11° C | 72% | 1017.6 hPa | 0 mm | - | 386 W/m² | - |
| 1788534531 | 30.56° C | 71% | 1017.4 hPa | 0 mm | - | 370 W/m² | - |
| 1788534226 | 30.56° C | 74% | 1017.4 hPa | 0 mm | - | 358 W/m² | - |
| 1788533924 | 30° C | 74% | 1017.6 hPa | 0 mm | - | 343 W/m² | - |
| 1788533621 | 30° C | 77% | 1017.6 hPa | 0 mm | - | 328 W/m² | - |
| 1788533316 | 30° C | 76% | 1017.4 hPa | 0 mm | - | 316 W/m² | - |
| 1788533012 | 29.44° C | 78% | 1017.4 hPa | 0 mm | - | 303 W/m² | - |
| 1788532701 | 30° C | 78% | 1017.4 hPa | 0 mm | - | 285 W/m² | - |
| 1788532398 | 29.44° C | 80% | 1017.6 hPa | 0 mm | - | 272 W/m² | - |
| 1788532095 | 28.89° C | 83% | 1017.5 hPa | 0 mm | - | 178 W/m² | - |
| 1788531790 | 28.89° C | 82% | 1017.5 hPa | 0 mm | - | 243 W/m² | - |
| 1788531490 | 28.33° C | 83% | 1017.3 hPa | 0 mm | - | 230 W/m² | - |
| 1788531185 | 28.33° C | 84% | 1017.2 hPa | 0 mm | - | 50 W/m² | - |
| 1788530881 | 27.78° C | 84% | 1017.2 hPa | 0 mm | - | 202 W/m² | - |
| 1788530576 | 27.78° C | 84% | 1017.2 hPa | 0 mm | - | 44 W/m² | - |
| 1788530274 | 27.22° C | 86% | 1017.3 hPa | 0 mm | - | 177 W/m² | - |
| 1788529970 | 27.22° C | 86% | 1017.2 hPa | 0 mm | - | 43 W/m² | - |
| 1788529666 | 27.22° C | 87% | 1017.2 hPa | 0 mm | - | 42 W/m² | - |
* Rain latest hour (hover to see other rain measurements)
** Current wind speed in m/s (hover to see current wind gust speed)